ROMMA est une association bénévole à but non lucratif. Votre soutien est indispensable : ADHERER à ROMMA ou FAIRE un DON

Crêts du Salève - (74, Haute-Savoie)

Salève (1270 m)   Longitude: 6° 10' 28'' E   Latitude: 46° 7' 42'' N Station romma n°73
 

Détail journalier du     <<     >>

Température Humidité Vent Dir Rafale Dir. rafale Ensol.
Heure (°C) (%) (km/h) (km/h) (min)
01:00 1.49650SSO74SSO0
02:00 1.99354SSO85SSO0
03:00 2.39359SSO98SSO0
04:00 2.49563SSO97SSO0
05:00 2.79469SSO122SSO0
06:00 2.88872SSO111SSO0
07:00 2.68869SSO113SSO0
08:00 2.58667S109SSO0
09:00 2.18963SSO98S0
10:00 1.29568SSO106SO0
11:00 -0.89865SO97SSO0
12:00 -0.89852SO74SO0
13:00 -0.79751SO89SO0
14:00 -2.29841OSO72OSO0
15:00 -2.49847OSO64OSO0
16:00 -2.49846SO66SO0
17:00 -2.49844SO60OSO0
18:00 -2.59845SO64SO0
19:00 -2.49839SO53SO0
20:00 -2.69840SO52SO0
21:00 -2.19740SO58SO0
22:00
23:00
minuit

Graphique du 28-01-2020

 

Serveur OMMA